FENGYUN 1C DEB, 30325

Orbit data source: Space-Track

FENGYUN 1C DEB, 30325 is space debris in SSO originally from a launch on Mon, 10 May 1999 UTC launched from the Taiyaun Space Center, China (TSC). Fengyun 1C debris stems from the Chinese weather satellite Fengyun-1C, which was intentionally destroyed by a Chinese anti-satellite missile in 2007. This event dramatically increased the amount of space debris, with thousands of trackable fragments posing hazards to satellites and human spaceflight. The Fengyun 1C debris cloud has become a focal point in discussions about space sustainability and the need for international regulations to prevent the creation of new debris.

Loading next visibility...
Identifier
30325, 1999-025AAL
Orbit
SSO
Country
Flag of CNCN / PRC
Related business
Manufacturer
Unknown
Mission
Spacecraft
Bus & Motor
Unknown
Mass
Unknown
Launch date (UTC)
1999-05-10 (26 years ago)
Launch vehicle
Unknown
Launch site
Taiyaun Space Center, China (TSC)
Object type
Payload
Rocket body
Debris
Shape & HBR
Unknown
Radar Cross Section
Small (<0.1 m²)

Expand to show TLE details & history
Last TLE update: 15 hours ago

TLE from 15 hours ago
0 FENGYUN 1C DEB
1 30325U 99025AAL 25246.00553658  .00000284  00000-0  18806-3 0  9999
2 30325  98.7435 268.3986 0016319 175.2393 184.8935 14.09056511955978
Epoch: 2025-09-03T00:07Z
TLE epoch observation values (Epoch: 2025-09-03T00:07:58.36Z)
Latitude
-0.00006°
Longitude
-75.98319°
Altitude
877.276 km
Speed
7.408 km/s
True Right ascension
17h 53m 35s
True Declination
0° 00' 00"
Sunlit
Object was in daylight at epoch
Visualization orbit readout
Latitude
Unknown
Longitude
Unknown
Altitude
Unknown
Speed
Unknown
Apparent Right ascension
Unknown
Apparent Declination
Unknown
Sunlit
N/A
Visualization observer readout
Local Sidereal Time
06:34:21
Azimuth
Unknown
Elevation
Unknown
Doppler factor
Unknown
Orbital elements
Apogee altitude
871.589 km
Perigee altitude
847.965 km
Semi-major axis
7,237.914 km
Eccentricity
0.00163
Inclination
98.7435°
RAAN
268.3986°
Arg. of periapsis
175.2393°
True anomaly
184.87758°
Mean anomaly
184.8935°
Eccentric anomaly
184.88554°
Mean motion
3.52471 °/min
Orbital period
102.14 mins
BSTAR
0.00018806
Loading maneuver chart data...
Computing Atmospheric mass density...
Loading historical data...
Loading historical data...
Loading historical data...
Loading historical data...
Loading historical data...
Loading historical data...
Loading historical data...

Documentation

Showing up to 5 results
|